This demonstration page uses our WeatherBlox Daily Observations layout. Learn more.

Left ArrowRight Arrow

Hourly Observations for January 5, 2017

Temp ( °F °C ) Dew Point ( °F °C ) Humidity (%) Winds ( mph kmh ) Pressure ( in mb ) Visibility ( mi km ) Precip ( " mm )
12:59 am 00:59 Clear 43 6.1 17 -8.3 35 35 NW 14 22 29.93 1013 10 16 0.00 0.00
1:59 am 01:59 Mostly Cloudy 41 5 19 -7.2 41 41 NW 10 17 29.94 1014 10 16 0.00 0.00
2:59 am 02:59 Mostly Cloudy 40 4.4 15 -9.4 36 36 NW 9 15 29.94 1014 10 16 0.00 0.00
3:59 am 03:59 Partly Cloudy 38 3.3 15 -9.4 39 39 NW 9 15 29.98 1015 10 16 0.00 0.00
4:59 am 04:59 Mostly Cloudy 37 2.8 21 -6.1 52 52 NW 8 13 29.97 1015 10 16 0.00 0.00
5:59 am 05:59 Mostly Clear 36 2.2 20 -6.7 52 52 NNW 8 13 29.99 1016 10 16 0.00 0.00
6:59 am 06:59 Partly Cloudy 36 2.2 17 -8.3 46 46 NW 7 11 30.03 1017 10 16 0.00 0.00
7:59 am 07:59 Partly Cloudy 37 2.8 16 -8.9 42 42 NW 8 13 30.05 1018 10 16 0.00 0.00
8:59 am 08:59 Mostly Cloudy 41 5 13 -10.6 32 32 NW 12 19 30.07 1018 10 16 0.00 0.00
9:59 am 09:59 Mostly Cloudy 42 5.6 13 -10.6 30 30 N 10 17 30.08 1019 10 16 0.00 0.00
10:59 am 10:59 Mostly Cloudy 43 6.1 17 -8.3 35 35 NE 12 19 30.06 1018 10 16 0.00 0.00
11:59 am 11:59 Mostly Cloudy 42 5.6 19 -7.2 40 40 ENE 6 9 30.02 1017 10 16 0.00 0.00
12:59 pm 12:59 Cloudy 42 5.6 17 -8.3 36 36 E 10 17 29.98 1015 10 16 0.00 0.00
1:59 pm 13:59 Cloudy 43 6.1 17 -8.3 35 35 WNW 6 9 30.00 1016 10 16 0.00 0.00
2:59 pm 14:59 Cloudy 43 6.1 18 -7.8 37 37 NNE 6 9 30.03 1017 10 16 0.00 0.00
3:59 pm 15:59 Cloudy 43 6.1 23 -5 45 45 ESE 6 9 30.02 1017 10 16 0.00 0.00
4:59 pm 16:59 Cloudy 43 6.1 21 -6.1 42 42 SE 9 15 29.99 1016 10 16 0.00 0.00
5:59 pm 17:59 Cloudy 42 5.6 25 -3.9 51 51 SE 9 15 29.96 1015 10 16 0.00 0.00
6:59 pm 18:59 Cloudy 43 6.1 27 -2.8 53 53 SSE 10 17 29.92 1013 10 16 0.00 0.00
7:59 pm 19:59 Cloudy 44 6.7 27 -2.8 51 51 VRB 3 6 29.93 1014 10 16 0.00 0.00
8:59 pm 20:59 Cloudy 44 6.7 29 -1.7 55 55 Calm 29.93 1014 10 16 0.00 0.00
9:59 pm 21:59 Cloudy 44 6.7 31 -0.6 60 60 NW 6 9 29.93 1013 10 16 0.00 0.00
10:59 pm 22:59 Cloudy 43 6.1 28 -2.2 56 56 NNW 8 13 29.93 1013 10 16 0.00 0.00
11:14 pm 23:14 Cloudy 43 6.1 28 -2.2 56 56 N 7 11 29.91 1013 10 16 0.00 0.00
11:59 pm 23:59 Cloudy with Light Rain 42 5.6 31 -0.6 65 65 N 6 9 29.89 1012 10 16 0.00 0.00

Powered by AerisWeather